Back to catalog

NOAA 16 DEB

AliveSSO
NORAD 41083·DEBRIS·🇺🇸 United States

Launched Sep 21, 2000 from Vandenberg Space Force Base

Loading…

Next Passes (next 24 hours)

TLE

FreshSource: Space-Track

Epoch: Sep 14, 2026, 03:44 UTC

1 41083U 00055AS  26257.15621224  .00000174  00000-0  19399-3 0  9997
2 41083  98.9869 140.2008 0203737 313.7231  44.7203 13.75397425541460

Track NOAA 16 DEB in real time with AllMySat

Download on the App Store